Back to catalog

STARLINK-36031

AliveCommunicationsVLEO
NORAD 66593·PAYLOAD·🇺🇸 United States

Launched Nov 22, 2025 from Cape Canaveral Space Force Station

Loading…

Next Passes (next 24 hours)

TLE

FreshSource: CelesTrak SupGP

Epoch: Sep 15, 2026, 02:55 UTC

1 66593C 25270F   26258.12201389 -.00024045  00000+0 -87083-3 0  2587
2 66593  43.0008  66.1704 0001537 267.5776 297.5263 15.27593414    12

Track STARLINK-36031 in real time with AllMySat

Download on the App Store